Monterrey Airport, Mexico

12:06 PM CDT on September 26, 2017 (GMT -0500)
Del Norte International

Weather History for MMAN - March, 2013

Change the Weather History Date:

Saturday, March 23, 2013

  Actual Average Record
Temperature  
Mean Temperature 84 °F -  
Max Temperature 100 °F 85 °F 100 °F (2013)
Min Temperature 68 °F 63 °F 50 °F (2006)
Cooling Degree Days 19    
Growing Degree Days 34 (Base 50)    
Moisture  
Dew Point 36 °F    
Average Humidity 26    
Maximum Humidity 94    
Minimum Humidity 4    
Precipitation  
Precipitation 0.00 in - - ()
Sea Level Pressure  
Sea Level Pressure 29.62 in    
Wind  
Wind Speed 6 mph ()    
Max Wind Speed 23 mph    
Max Gust Speed -    
Visibility 12.6 miles    
Events      
Averages and records for this station are not official NWS values.
T = Trace of Precipitation, MM = Missing Value Source: Averaged Metar Reports

Daily Weather History Graph

Daily Weather History Graph

Search for Another Location

Airport or City:

Trip Planner

Search our weather history database for the weather conditions in past years. The results will help you decide how hot, cold, wet, or windy it might be!

Date:

Astronomy

Mar. 23, 2013 Rise Set
Actual Time 6:41 AM CST 6:53 PM CST
Civil Twilight 6:18 AM CST 7:16 PM CST
Nautical Twilight 5:51 AM CST 7:43 PM CST
Astronomical Twilight 5:24 AM CST 8:10 PM CST
Moon 3:39 PM CST (3/23) 3:59 AM CST (3/23)
Length of Visible Light 12h 58m
Length of Day
12h 12m
Waxing Gibbous, 85% of the Moon is Illuminated
Mar 23
Waxing Gibbous
Mar 27
Full
Apr 2
Last Quarter
Apr 10
New
Apr 18
First Quarter

Hourly Weather History & Observations

Time (CST) Temp. Dew Point Humidity Pressure Visibility Wind Dir Wind Speed Gust Speed Precip Events Conditions
4:53 AM 69.8 °F 68.0 °F 94% 29.66 in 2.0 mi Calm Calm - N/A   Clear
5:45 AM 68.0 °F 66.2 °F 94% 29.54 in 2.0 mi Calm Calm - N/A   Clear
6:40 AM 71.6 °F 60.8 °F 69% 29.67 in 10.0 mi North - - N/A   Clear
7:40 AM 77.0 °F 62.6 °F 61% 29.70 in 12.0 mi West 11.5 mph - N/A   Clear
8:40 AM 82.4 °F 37.4 °F 20% 29.62 in 15.0 mi Calm Calm - N/A   Clear
9:40 AM 89.6 °F 39.2 °F 17% 29.71 in 15.0 mi North - - N/A   Clear
10:40 AM 93.2 °F 35.6 °F 13% 29.69 in 15.0 mi North - - N/A   Clear
11:41 AM 95.0 °F 33.8 °F 12% 29.59 in 15.0 mi North - - N/A   Clear
12:40 PM 96.8 °F 30.2 °F 10% 29.64 in 15.0 mi North - - N/A   Clear
1:46 PM 98.6 °F 46.4 °F 17% 29.60 in 15.0 mi North - - N/A   Clear
2:49 PM 100.4 °F 39.2 °F 12% 29.50 in 15.0 mi North - - N/A   Clear
3:41 PM 98.6 °F 46.4 °F 17% 29.56 in 15.0 mi North - - N/A   Clear
4:40 PM 100.4 °F 24.8 °F 7% 29.55 in 15.0 mi North - - N/A   Clear
5:40 PM 96.8 °F 6.8 °F 4% 29.49 in 15.0 mi WNW 19.6 mph - N/A   Clear
6:42 PM 95.0 °F 5.0 °F 4% 29.61 in 15.0 mi WNW 23.0 mph - N/A   Clear
7:44 PM 87.8 °F 14.0 °F 6% 29.64 in 12.0 mi NW 11.5 mph - N/A   Clear
8:41 PM 87.8 °F 14.0 °F 6% 29.55 in 12.0 mi NW 5.8 mph - N/A   Clear
9:42 PM 78.8 °F 19.4 °F 11% 29.71 in 12.0 mi North 4.6 mph - N/A   Clear
10:42 PM 82.4 °F 35.6 °F 19% 29.74 in 12.0 mi SE 9.2 mph - N/A   Clear
11:40 PM 75.2 °F 35.6 °F 24% 29.63 in 12.0 mi NNW 4.6 mph - N/A   Clear